Regional Weather Roundup
Issued by NWS

Home | Current Version | Previous Version | Graphics & Text | Print | Product List | Glossary On
Versions: 1 2 3 4 5 6 7 8 9 10 11 12 13 14 15 16 17 18 19 20 21 22 23 24 25 26 27 28 29 30 31 32 33 34 35 36 37 38 39 40 41 42 43 44 45 46 47 48 49 50
000
ASUS45 KBOU 012207
RWRCO

WEATHER ROUNDUP FOR COLORADO
NATIONAL WEATHER SERVICE DENVER/BOULDER CO
400 PM MDT MON SEP 01 2014

NOTE: "FAIR" INDICATES FEW OR NO CLOUDS BELOW 12000 FEET WITH NO
SIGNIFICANT WEATHER AND/OR OBSTRUCTIONS TO VISIBILITY.

COZ001>005-013-030-031-012300-
...NORTHWEST COLORADO...

CITY           SKY/WX    TMP DP  RH WIND       PRES   REMARKS
CRAIG          SUNNY     75  35  23 W17G28    30.11S
HAYDEN         MOSUNNY   72  30  21 NW18G26   30.13S
MEEKER         SUNNY     76  31  19 NW15G25   30.12F
MOUNT WERNER   NOT AVBL
STEAMBOAT SPGS MOSUNNY   69  31  24 W21G26    30.14F
WALDEN         SUNNY     63  28  27 W22G35    30.20R
$$

COZ006>008-011-012300-
...WEST CENTRAL VALLEYS...

CITY           SKY/WX    TMP DP  RH WIND       PRES   REMARKS
GRAND JUNCTION SUNNY     84  36  18 W12G18    30.01F
MONTROSE       SUNNY     84  35  17 N10       30.07F
EAGLE          MOSUNNY   75  36  23 W18G28    30.13S
RIFLE          MOSUNNY   81  32  17 W12G28    30.05S
DELTA          SUNNY     88  30  12 W8G17     30.02F
NUCLA          SUNNY     86  28  12 W13G20    30.11F
$$

COZ017>023-064>068-012300-
...SOUTHWEST COLORADO...

CITY           SKY/WX    TMP DP  RH WIND       PRES   REMARKS
DURANGO        SUNNY     83  27  13 W15G32    30.13S
CORTEZ         SUNNY     87  30  13 W15G22    30.09F
PAGOSA SPRINGS SUNNY     80  19  10 SW15G25   30.18F
TELLURIDE      SUNNY     72  25  17 W13G21    30.33F
WOLF CREEK PAS SUNNY     57  30  35 SW16G37   30.49S
$$

COZ009-010-012-014-032>034-037-058>063-012300-
...CENTRAL COLORADO...

CITY           SKY/WX    TMP DP  RH WIND       PRES   REMARKS
ASPEN          MOSUNNY   74  34  23 N10G18    30.18F
BUENA VISTA    MOSUNNY   76  22  13 SW20G31   30.15S
COPPER MTN     MOSUNNY   55  27  33 W25G44    30.46R
BERTHOUD PASS  PTSUNNY   45  43  93 W26G39    30.47R
COTTONWOOD PAS MOSUNNY   68  19  15 W15G32    30.30R
GUNNISON       SUNNY     75  32  20 W20G25    30.20S
KREMMLING      SUNNY     73  23  15 NW12G28   30.16S
LEADVILLE      MOSUNNY   63  31  30 NW9G21    30.32R
MONARCH PASS   SUNNY     55  27  33 W41G60    30.55R
SALIDA         SUNNY     81  26  13 W23G29    30.19S
SUNLIGHT       MOSUNNY   63  39  42 CALM      30.42S
WILKERSON PASS NOT AVBL
$$

COZ069>075-012300-
...SAN LUIS VALLEY/SANGRE DE CRISTO MOUNTAINS...

CITY           SKY/WX    TMP DP  RH WIND       PRES   REMARKS
ALAMOSA        MOSUNNY   83  29  14 W12G26    30.11F
LA VETA PASS   NOT AVBL
SAGUACHE       NOT AVBL
$$

COZ035-036-038>040-012300-
...NORTHERN COLORADO FRONT RANGE...

CITY           SKY/WX    TMP DP  RH WIND       PRES   REMARKS
DENVER INTL AP MOSUNNY   79  38  22 NE7       29.99F
DMNS CITY PARK   N/A     81  38  21 E3        29.97F
AURORA         MOSUNNY   79  40  24 NE7       30.01F
FRONT RANGE AP NOT AVBL
ERIE MUNI ARPT SUNNY     80  38  22 E9        29.96S
BOULDER MUN AP MOSUNNY   81  37  21 NE8       29.97S
CENTENNIAL     MOSUNNY   77  35  21 S5        30.01F
BROOMFIELD     MOSUNNY   79  37  22 VRB5      30.00F
FORT COLLINS   SUNNY     79  45  29 E6        29.96S
LONGMONT       MOSUNNY   81  44  26 E9        29.97R
$$

COZ041-046-047-076>085-087-088-012300-
...PIKES PEAK/PALMER DIVIDE AND SOUTHERN FOOTHILLS...

CITY           SKY/WX    TMP DP  RH WIND       PRES   REMARKS
COLO. SPRINGS  MOSUNNY   76  45  33 E10       30.04F
A. F. ACADEMY  MOSUNNY   74  46  37 SE6       30.06F
ELLICOTT       MOSUNNY   77  43  29 SE10      30.04F
FALCON         MOSUNNY   74  44  34 SE6       30.11S
FORT CARSON    MOSUNNY   81  46  29 SE12G18   30.00S
LIMON          SUNNY     76  40  27 VRB3      30.01F
MONUMENT HILL  MOSUNNY   72  45  37 E6        30.10S
TRINIDAD       SUNNY     91  37  15 S10G17    29.95F
$$

COZ042>045-048>051-090-091-012300-
...NORTHEAST COLORADO...

CITY           SKY/WX    TMP DP  RH WIND       PRES   REMARKS
GREELEY ARPT   SUNNY     79  43  27 E8        29.96F
AKRON          SUNNY     78  38  23 MISG      29.97F
BURLINGTON     SUNNY     82  43  25 MISG      29.96F
WRAY             N/A     82  47  28 S5        29.94F
STERLING       SUNNY     81  50  34 SW9       29.92F
HOLYOKE        SUNNY     79  50  36 S7        29.93F
FORT MORGAN    SUNNY     80  38  22 W6        29.96F
$$

COZ086-089-092>099-012300-
...SOUTHEAST COLORADO...

CITY           SKY/WX    TMP DP  RH WIND       PRES   REMARKS
PUEBLO         SUNNY     87  41  19 VRB7      29.90F
LA JUNTA       SUNNY     88  43  20 S9        29.90F
LAMAR          SUNNY     87  44  22 S8        29.89F
SPRINGFIELD      N/A     83  47  28 VRB7      29.96F
$$



USA.gov is the U.S. government's official web portal to all federal, state and local government web resources and services.